Miscellaneous Local Product
Issued by NWS Hastings, NE

Home | Current Version | Previous Version | Text Only | Print | Product List | Glossary Off
Versions: 1 2 3 4 5 6 7 8 9 10 11 12 13 14 15 16 17 18 19 20 21 22 23 24 25 26 27 28 29 30 31 32 33 34 35 36 37 38 39 40 41 42 43 44 45 46 47 48 49 50

213
AXUS43 KGID 211302
MISGRI

GID CWA HOURLY WEATHER ROUNDUP
NATIONAL WEATHER SERVICE HASTINGS NE
700 AM CST WED FEB 21 2018

NOTE: "FAIR" INDICATES FEW OR NO CLOUDS BELOW 12,000 FEET WITH NO
SIGNIFICANT WEATHER AND/OR OBSTRUCTIONS TO VISIBILITY.

...SOUTH CENTRAL NEBRASKA...

CITY           SKY/WX    TMP DP  RH WIND       PRES   REMARKS
GRAND ISLAND   CLEAR      3  -2  79 SE3       30.52R
KEARNEY        CLEAR      1  -4  79 CALM      30.49R
HASTINGS       CLOUDY     2  -2  83 CALM      30.52R
ORD            NOT AVBL
YORK           CLOUDY     3   1  92 CALM      30.55R
AURORA         CLOUDY     3  -2  81 CALM      30.53R
LEXINGTON      CLEAR      4  -1  79 NW3       30.44R
HOLDREGE       CLOUDY     2  -1  85 NE3       30.46R
HEBRON         CLOUDY     7   1  78 CALM      30.57R

...NEBRASKA PANHANDLE...

CITY           SKY/WX    TMP DP  RH WIND       PRES   REMARKS
CHADRON        PTCLDY   -17 -25  66 W7        30.30S WCI -33
ALLIANCE       CLEAR    -21 -26  77 SE3       30.24F
SCOTTSBLUFF    PTCLDY    -9 -13  83 S6        30.25S WCI -22
SIDNEY         CLEAR     -8 -12  83 SW7       30.25R WCI -23

...WESTERN AND NORTH CENTRAL NEBRASKA...

CITY           SKY/WX    TMP DP  RH WIND       PRES   REMARKS
VALENTINE      CLEAR    -13 -19  75 SW5       30.39S WCI -25
AINSWORTH      CLEAR     -5 -10  79 CALM      30.39R
ONEILL         CLEAR     -8 -13  80 CALM      30.46S
BROKEN BOW     CLEAR     -3  -9  75 CALM      30.42R
IMPERIAL       CLEAR     -5  -8  87 CALM      30.34R
NORTH PLATTE   CLEAR     -7 -13  75 W6        30.39R WCI -20
MCCOOK         CLEAR      2  -3  80 W5        30.44R WCI  -8

...EASTERN NEBRASKA...

CITY           SKY/WX    TMP DP  RH WIND       PRES   REMARKS
NORFOLK        CLOUDY    -1  -5  82 SW3       30.52R
SO SIOUX CITY  CLOUDY     1  -2  87 W5        30.58R WCI  -9
TEKAMAH        CLEAR      6   1  80 CALM      30.61R
COLUMBUS       CLEAR      3  -1  83 CALM      30.57R
ALBION         PTCLDY     0  -6  76 N3        30.51R
OMAHA EPPLEY   PTCLDY     8   3  80 E3        30.62R
OFFUTT AFB     CLEAR      8   2  74 N8        30.59R WCI  -4
MILLARD        CLEAR     10   3  74 CALM      30.61R
LINCOLN        CLOUDY     6   1  80 CALM      30.61R
NEBRASKA CITY  CLOUDY    10   7  88 N5        30.58S WCI   1
BEATRICE       CLOUDY     9   4  82 N7        30.57S WCI  -3
FALLS CITY     CLOUDY    12   5  73 N9        30.58R WCI   0

...NORTHERN KANSAS...

CITY           SKY/WX    TMP DP  RH WIND       PRES   REMARKS
GOODLAND       CLEAR      0  -5  79 SW5       30.33R WCI -10
HILL CITY      CLOUDY     3  -1  83 N3        30.50R
NORTON         SUNNY      1  -2  85 CALM      30.47R
PHILLIPSBURG   CLEAR      3   0  85 CALM      30.54R
SMITH CENTER   CLOUDY     3   1  92 NE5       30.54R WCI  -6
BELOIT         CLEAR      7   1  78 CALM      30.56R
HAYS           CLOUDY     3  -3  76 CALM      30.52R
RUSSELL        CLOUDY     6   2  83 CALM      30.51R
CONCORDIA      CLOUDY     8   2  76 N10       30.54R WCI  -6
SALINA         CLOUDY    13   5  70 N10       30.55R WCI   0
TOPEKA         PTCLDY    14  10  84 N10       30.57R WCI   1



USA.gov is the U.S. government's official web portal to all federal, state and local government web resources and services.